Find Local Weather

World > North America > United States > South Carolina

Mountain Rest, South Carolina Regional Weather

Lat: 34.87N, Lon: 83.15W
Wx Zone: SCZ001
Feedback
Expires:201805232100;;419394
ASUS42 KCAE 232010
RWRCAE
REGIONAL WEATHER ROUNDUP
NATIONAL WEATHER SERVICE COLUMBIA SC
400 PM EDT WED MAY 23 2018

NOTE: "FAIR" INDICATES FEW OR NO CLOUDS BELOW 12,000 FEET WITH NO
SIGNIFICANT WEATHER AND/OR OBSTRUCTIONS TO VISIBILITY.

NOT ALL STATIONS ARE QUALITY CONTROLLED BY THE NATIONAL 
WEATHER SERVICE. USE DATA WITH CAUTION...ESPECIALLY 
DEWPOINT OBSERVATIONS.


SCZ001>056-GAZ040-063>065-077-232100-
...UPSTATE SOUTH CAROLINA...
  
CITY           SKY/WX    TMP DP  RH WIND       PRES   REMARKS
ANDERSON       FAIR      81  68  64 VRB5      30.05F                  
LIBERTY        MOCLDY    82  70  65 S5        30.05F                  
SPARTANBURG    LGT RAIN  81  64  57 CALM      30.04F                  
CLEMSON        FAIR      80  69  69 MISG      30.06F                  
GREENVILLE     FAIR      86  66  51 S9        30.06F                  
GREENWOOD      FAIR      83  68  60 SW8       30.06F                  
GREER          FAIR      86  66  51 SW3       30.05F                  
ROCK HILL      FAIR      84  72  67 SW7       30.04F                  
CHESTER        FAIR      84  64  51 W5        30.05F                  
LAURENS        FAIR      84  68  58 SW8       30.05F                  


...CENTRAL SOUTH CAROLINA...
  
CITY           SKY/WX    TMP DP  RH WIND       PRES   REMARKS
COLUMBIA APT   PTSUNNY   83  71  67 SW12      30.04F                  
COLUMBIA OWENS CLOUDY    82  72  71 SW9       30.05F                  
MCENTIRE ANGB  PTSUNNY   83  71  67 SW10      30.05F                  
ORANGEBURG     FAIR      79  70  74 SW6       30.06F                  
SUMTER SHAW    PTSUNNY   82  71  68 S9        30.03F                  
NEWBERRY       FAIR      82  70  65 S7        30.08S                  
AIKEN          DRIZZLE   77  72  83 SE7       30.10F                  
BARNWELL       FAIR      79  72  78 CALM      30.06F                  
MANNING        FAIR      73  66  78 W3        30.06F                  
CAMDEN         FAIR      84  72  65 MISG      30.04F                  
LANCASTER      FAIR      73  73 100 SW5       30.05F                  
WINNSBORO      MOCLDY    82  68  61 SW8       30.05F                  


...EASTERN AND COASTAL SOUTH CAROLINA...
  
CITY           SKY/WX    TMP DP  RH WIND       PRES   REMARKS
MYRTLE BEACH   FAIR      78  73  84 S8        30.07F                  
N MYRTLE BCH   FAIR      78  70  76 SW15      30.06F                  
CONWAY         FAIR      77  73  88 S6        30.06F                  
MARION         FAIR      82  70  65 S13       30.04F                  
HARTSVILLE     FAIR      84  70  61 S6        30.03F                  
FLORENCE       FAIR      83  68  60 SW12      30.04F                  
DARLINGTON       N/A     85  70  60 S15       30.03F                  
CHARLESTON APT FAIR      88  69  53 S14       30.05F                  
MOUNT PLEASANT FAIR      84  66  54 S14       30.06F                  
WALTERBORO     LGT RAIN  75  73  94 N7        30.06F                  
BEAUFORT       FAIR      84  72  67 S7        30.06                   


...EASTERN GEORGIA...
  
CITY           SKY/WX    TMP DP  RH WIND       PRES   REMARKS
AUGUSTA BUSH F LGT RAIN  79  73  82 E5        30.04F                  
AUGUSTA DANIEL FAIR      76  73  91 CALM      30.06F                  
THOMSON        CLOUDY    76  73  88 SE7       30.10F                  
CLAXTON        FAIR      86  70  58 SE3       30.04F                  
SYLVANIA       FAIR      82  74  77 NE5       30.06F                  
STATESBORO     FAIR      84  69  60 SW3       30.05S                  
SAVANNAH       PTSUNNY   86  72  62 S14       30.05F                  


...SOUTHERN NORTH CAROLINA...
  
CITY           SKY/WX    TMP DP  RH WIND       PRES   REMARKS
CHARLOTTE      PTSUNNY   86  68  54 SW7       30.04F                  
MONROE         FAIR      85  70  60 SW10      30.03F                  
WADESBORO      FAIR      88  67  49 SW3       30.01F                  
ROCKINGHAM     FAIR      85  69  58 SW5       30.02F                  
RUTHERFORDTON  FAIR      84  67  54 CALM      30.06F                  
ASHEVILLE      FAIR      84  58  40 N14       30.10F                  

$$
  

SKY/WX - Weather  TMP - Temperature  DP - Dewpoint  RH - Relative Humidity
WIND - Wind Direction/Speed PRES - Barometric Pressure